Regional Weather Roundup
Issued by NWS Jackson, KY

Home | Current Version | Previous Version | Graphics & Text | Print | Product List | Glossary On
Versions: 1 2 3 4 5 6 7 8 9 10 11 12 13 14 15 16 17 18 19 20 21 22 23 24 25 26 27
000
ASUS43 KJKL 030910
RWRJKL

EAST KENTUCKY HOURLY WEATHER ROUNDUP
NATIONAL WEATHER SERVICE JACKSON KY
400 AM EST SAT DEC 03 2016

NOTE: "FAIR" INDICATES FEW OR NO CLOUDS BELOW 12,000 FEET WITH
NO SIGNIFICANT WEATHER AND/OR OBSTRUCTIONS TO VISIBILITY.

* THESE REPORTS ARE NOT UNDER NWS QUALITY CONTROL AND MAY NOT
  REPORT WEATHER SUCH AS PRECIPITATION AND FOG.

KYZ079-080-083-085-087-088-110-112-115-119-120-031000
...EASTERN KENTUCKY...

CITY           SKY/WX    TMP DP  RH WIND       PRES   REMARKS
JACKSON        CLOUDY    35  29  78 CALM      30.31F
LONDON         MOCLDY    31  27  85 CALM      30.32S
SOMERSET*      CLOUDY    30  30 100 CALM      30.34F
WILLIAMSBURG*  PTSUNNY   28  28 100 CALM      30.31F
MIDDLESBORO*   PTCLDY    30  28  95 CALM      30.32F
HARLAN APT*    CLOUDY    32  28  86 CALM      30.30F
PIKE CO APT*   CLOUDY    35  31  85 CALM      30.30F
ASHLAND*       CLOUDY    39  30  70 W3        30.32R
$$

KYZ035-036-041-042-044-050-067-078-099-031000
...CENTRAL KENTUCKY...

CITY           SKY/WX    TMP DP  RH WIND       PRES   REMARKS
MT STERLING*   CLOUDY    36  32  87 CALM      30.33F
FLEMING/MASON* CLOUDY    37  31  79 CALM      30.34R
DANVILLE*      CLOUDY    34  32  93 CALM      30.33F
LEXINGTON      CLOUDY    39  30  70 CALM      30.33R
FRANKFORT      CLOUDY    39  31  72 CALM      30.33S
LOUISVILLE     CLOUDY    41  29  62 NW3       30.35F
LEBANON*       CLOUDY    37  32  81 CALM      30.34F
GLASGOW*       CLOUDY    32  32 100 CALM      30.34S
$$

KYZ091>093-OHZ055-061-077-WVZ005-015-034-035-042-031000
...SOUTHERN OHIO/WEST VIRGINIA...

CITY           SKY/WX    TMP DP  RH WIND       PRES   REMARKS
COVINGTON      CLOUDY    36  35  96 CALM      30.32R
COLUMBUS       CLOUDY    34  29  82 NW3       30.29S
DAYTON         CLOUDY    36  30  79 W6        30.30F WCI  31
WILMINGTON     CLOUDY    36  30  79 W5        30.30  WCI  32
HUNTINGTON     CLOUDY    39  28  64 CALM      30.32R
CHARLESTON     CLOUDY    37  29  72 W5        30.30S WCI  33
PINEVILLE*     CLOUDY    36  27  71 MISG      30.32S
BECKLEY        CLOUDY    32  24  72 NW10      30.23S WCI  24
BLUEFIELD      CLOUDY    29  24  82 NW8G23    30.23S WCI  21
$$

VAZ002-007-008-TNZ017-027-036-066-071-031000
...SOUTHWEST VIRGINIA/EAST TENNESSEE...

CITY           SKY/WX    TMP DP  RH WIND       PRES   REMARKS
WISE*          CLOUDY    32  28  86 CALM      30.26S
ABINGDON*      CLOUDY    37  29  74 NW3       30.27F
BRISTOL        CLOUDY    30  26  85 CALM      30.29F
MORRISTOWN*    SUNNY     34  30  86 CALM      30.28S
SEVIERVILLE*   SUNNY     28  27  93 CALM      30.29S
KNOXVILLE      PTCLDY    34  31  88 E3        30.28S
OAK RIDGE      CLOUDY    39  29  67 CALM      30.31F
CROSSVILLE     CLOUDY    33  27  78 NE3       30.28S
$$

...KEY TO REMARKS...
VSB - VISIBILITY IN MILES
WCI - WIND CHILL INDEX
HX  - HEAT INDEX

$$




USA.gov is the U.S. government's official web portal to all federal, state and local government web resources and services.